Location: Cahas Mountain Overlook
(37.0833°N, 80.1000°W)
Time: 19:54:16
(UTC-04:00)

Tiros 1 - Pass Details

Date: 14 February 2026
Orbit: 618 x 649 km, 48.4° (Epoch: 13 March)

Event Time Altitude Azimuth Distance (km) Brightness Sun altitude
Rises 13:32:36 0° 301° (WNW) 2,889 10.4 38.3°
Reaches altitude 10° 13:35:27 10° 318° (NW) 1,980 9.5 38.1°
Maximum altitude 13:38:49 20° 6° (N) 1,433 8.7 37.9°
Drops below altitude 10° 13:42:11 10° 55° (NE) 1,977 9.3 37.6°
Sets 13:45:02 0° 72° (ENE) 2,883 10.2 37.4°
